Location: El Álamo
(40.2307°N, 3.9945°W)
Time: 04:35:25
(UTC+00:00)

ISS - Pass Details

Date: 19 May 2025
Orbit: 415 x 417 km, 51.6° (Epoch: 24 June)

Event Time Altitude Azimuth Distance (km) Brightness Sun altitude
Rises 23:22:08 0° 306° (NW) 2,358 0.7 -28.6°
Reaches altitude 10° 23:24:14 10° 306° (NW) 1,491 -0.4 -28.7°
Enters shadow 23:24:29 12° 306° (NW) 1,387 -0.6 -28.8°
